EZS23YH LSGG-EGKK

Flight info

Callsign EZS23YH
Flight time 1h 9m
Altitude 36000
Route DIPIR T37 IBABA DCT TUTAX DCT OBURO DCT OKRIX DCT CLM DCT KOPOR DCT KESAX DCT KUNAV
Aircraft A320/M-SDE2E3FGHIJ1RWXYZ/LB1

Departure

Time 2026-05-06 19:05
Airport Geneva International Airport (LSGG)

Arrival

Time 2026-05-06 20:15
Airport London Gatwick Airport (EGKK)
Time Latitude Longitude Altitude Speed Heading
2026-05-06 18:25 46.23381 6.11039 1396 ft 0 kts 135°
2026-05-06 18:55 46.23398 6.11015 1393 ft 4 kts 131°
2026-05-06 18:55 46.23414 6.10984 1396 ft 4 kts 118°
2026-05-06 18:55 46.23422 6.10950 1399 ft 4 kts 76°
2026-05-06 18:56 46.23418 6.10935 1402 ft 0 kts 45°
2026-05-06 18:59 46.23427 6.10951 1404 ft 5 kts 46°
2026-05-06 18:59 46.23464 6.11005 1396 ft 8 kts 46°
2026-05-06 19:00 46.23479 6.11026 1393 ft 2 kts 45°
2026-05-06 19:00 46.23505 6.11063 1402 ft 9 kts 45°
2026-05-06 19:00 46.23565 6.11154 1398 ft 13 kts 44°
2026-05-06 19:00 46.23632 6.11121 1397 ft 11 kts 315°
2026-05-06 19:01 46.23698 6.11078 1387 ft 13 kts 26°
2026-05-06 19:01 46.23775 6.11183 1380 ft 18 kts 45°
2026-05-06 19:01 46.23867 6.11318 1373 ft 20 kts 45°
2026-05-06 19:01 46.23973 6.11474 1373 ft 23 kts 46°
2026-05-06 19:02 46.24095 6.11653 1368 ft 26 kts 45°
2026-05-06 19:02 46.24223 6.11843 1362 ft 27 kts 45°
2026-05-06 19:02 46.24354 6.12033 1365 ft 26 kts 45°
2026-05-06 19:02 46.24467 6.12204 1372 ft 22 kts 43°
2026-05-06 19:03 46.24575 6.12359 1371 ft 23 kts 46°
2026-05-06 19:03 46.24695 6.12535 1363 ft 27 kts 45°
2026-05-06 19:03 46.24814 6.12681 1362 ft 18 kts 19°
2026-05-06 19:03 46.24929 6.12725 1365 ft 16 kts 17°
2026-05-06 19:04 46.24987 6.12701 1370 ft 6 kts 309°
2026-05-06 19:04 46.24994 6.12664 1371 ft 3 kts 272°
2026-05-06 19:04 46.24964 6.12596 1371 ft 17 kts 229°
2026-05-06 19:04 46.24804 6.12363 1372 ft 54 kts 224°
2026-05-06 19:05 46.24398 6.11763 1372 ft 115 kts 225°
2026-05-06 19:05 46.23702 6.10738 1385 ft 165 kts 226°
2026-05-06 19:05 46.22850 6.09559 1941 ft 167 kts 224°
2026-05-06 19:05 46.22038 6.08436 2722 ft 164 kts 225°
2026-05-06 19:06 46.21204 6.07198 3144 ft 182 kts 226°
2026-05-06 19:06 46.20276 6.05801 3432 ft 204 kts 225°
2026-05-06 19:06 46.19243 6.04258 3784 ft 224 kts 225°
2026-05-06 19:06 46.18098 6.02557 4223 ft 247 kts 225°
2026-05-06 19:07 46.16868 6.00744 5004 ft 256 kts 225°
2026-05-06 19:07 46.15614 5.98898 5933 ft 259 kts 226°
2026-05-06 19:07 46.14357 5.97018 6843 ft 262 kts 226°
2026-05-06 19:07 46.13285 5.94883 7692 ft 266 kts 247°
2026-05-06 19:08 46.12931 5.92259 8539 ft 271 kts 271°
2026-05-06 19:08 46.13367 5.89601 9403 ft 278 kts 295°
2026-05-06 19:08 46.14554 5.87376 10246 ft 285 kts 319°
2026-05-06 19:08 46.16329 5.86069 10997 ft 293 kts 345°
2026-05-06 19:09 46.18353 5.85557 11793 ft 299 kts 348°
2026-05-06 19:09 46.20486 5.85066 12125 ft 321 kts 348°
2026-05-06 19:09 46.22727 5.84553 12501 ft 337 kts 348°
2026-05-06 19:09 46.25068 5.84014 13174 ft 344 kts 348°
2026-05-06 19:10 46.27449 5.83460 13919 ft 348 kts 348°
2026-05-06 19:10 46.29854 5.82893 14602 ft 351 kts 348°
2026-05-06 19:10 46.32278 5.82319 15293 ft 355 kts 348°
2026-05-06 19:10 46.34721 5.81737 15972 ft 358 kts 348°
2026-05-06 19:11 46.37191 5.81149 16651 ft 361 kts 348°
2026-05-06 19:11 46.39680 5.80526 17323 ft 364 kts 345°
2026-05-06 19:11 46.42084 5.79372 17974 ft 365 kts 333°
2026-05-06 19:11 46.44322 5.77634 18615 ft 366 kts 329°
2026-05-06 19:12 46.46551 5.75827 19221 ft 368 kts 329°
2026-05-06 19:12 46.48796 5.74013 19808 ft 370 kts 330°
2026-05-06 19:12 46.51055 5.72190 20389 ft 373 kts 330°
2026-05-06 19:12 46.53329 5.70353 20968 ft 375 kts 330°
2026-05-06 19:13 46.55619 5.68503 21526 ft 378 kts 330°
2026-05-06 19:13 46.57925 5.66638 22094 ft 380 kts 330°
2026-05-06 19:13 46.60246 5.64757 22596 ft 384 kts 330°
2026-05-06 19:13 46.62556 5.62882 23105 ft 387 kts 330°
2026-05-06 19:14 46.64921 5.60954 23618 ft 391 kts 330°
2026-05-06 19:14 46.67297 5.59010 24050 ft 393 kts 330°
2026-05-06 19:14 46.69694 5.57059 24475 ft 396 kts 331°
2026-05-06 19:14 46.72111 5.55107 24910 ft 399 kts 331°
2026-05-06 19:15 46.74554 5.53142 25333 ft 402 kts 331°
2026-05-06 19:15 46.76998 5.51148 25745 ft 404 kts 331°
2026-05-06 19:15 46.79452 5.49102 26149 ft 407 kts 330°
2026-05-06 19:15 46.81917 5.47021 26557 ft 410 kts 330°
2026-05-06 19:16 46.84339 5.44798 26944 ft 413 kts 324°
2026-05-06 19:16 46.86484 5.41977 27315 ft 418 kts 313°
2026-05-06 19:16 46.88258 5.38588 27685 ft 423 kts 303°
2026-05-06 19:16 46.89590 5.34731 28058 ft 427 kts 292°
2026-05-06 19:17 46.90633 5.30646 28416 ft 430 kts 292°
2026-05-06 19:17 46.91906 5.26687 28768 ft 432 kts 302°
2026-05-06 19:17 46.93623 5.23070 29120 ft 433 kts 311°
2026-05-06 19:17 46.95729 5.19920 29468 ft 434 kts 320°
2026-05-06 19:18 46.97988 5.16969 29826 ft 437 kts 320°
2026-05-06 19:18 47.00257 5.13991 30121 ft 439 kts 319°
2026-05-06 19:18 47.02532 5.10982 30397 ft 442 kts 319°
2026-05-06 19:18 47.04813 5.07950 30677 ft 444 kts 319°
2026-05-06 19:19 47.07075 5.04939 30948 ft 446 kts 318°
2026-05-06 19:19 47.09378 5.01864 31263 ft 447 kts 318°
2026-05-06 19:19 47.11679 4.98787 31642 ft 447 kts 318°
2026-05-06 19:19 47.13975 4.95720 32018 ft 446 kts 317°
2026-05-06 19:20 47.16270 4.92661 32408 ft 445 kts 317°
2026-05-06 19:20 47.18563 4.89611 32799 ft 444 kts 317°
2026-05-06 19:20 47.20850 4.86561 33188 ft 444 kts 316°
2026-05-06 19:20 47.23130 4.83506 33569 ft 443 kts 316°
2026-05-06 19:21 47.25404 4.80449 33936 ft 443 kts 316°
2026-05-06 19:21 47.27680 4.77389 34254 ft 442 kts 316°
2026-05-06 19:21 47.29954 4.74332 34555 ft 443 kts 316°
2026-05-06 19:21 47.32224 4.71279 34836 ft 443 kts 316°
2026-05-06 19:22 47.34504 4.68213 35121 ft 443 kts 316°
2026-05-06 19:22 47.36788 4.65138 35392 ft 443 kts 316°
2026-05-06 19:22 47.39064 4.62065 35678 ft 443 kts 316°
2026-05-06 19:22 47.41303 4.59032 35890 ft 444 kts 316°
2026-05-06 19:23 47.43573 4.55952 35949 ft 440 kts 316°
2026-05-06 19:23 47.48051 4.49866 35957 ft 436 kts 316°
2026-05-06 19:24 47.52503 4.43788 35957 ft 436 kts 316°
2026-05-06 19:24 47.56963 4.37709 35953 ft 436 kts 316°
2026-05-06 19:25 47.61416 4.31625 35954 ft 436 kts 316°
2026-05-06 19:25 47.65678 4.25284 35956 ft 433 kts 306°
2026-05-06 19:26 47.69073 4.17914 35951 ft 432 kts 303°
2026-05-06 19:26 47.72438 4.10515 35954 ft 432 kts 303°
2026-05-06 19:27 47.75799 4.03121 35953 ft 432 kts 303°
2026-05-06 19:27 47.79131 3.95757 35943 ft 432 kts 303°
2026-05-06 19:28 47.82474 3.88338 35941 ft 432 kts 303°
2026-05-06 19:28 47.85821 3.80908 35941 ft 432 kts 303°
2026-05-06 19:29 47.89155 3.73478 35941 ft 432 kts 303°
2026-05-06 19:29 47.92489 3.66030 35943 ft 432 kts 302°
2026-05-06 19:30 47.96153 3.58944 35943 ft 433 kts 316°
2026-05-06 19:30 48.01138 3.53943 35936 ft 435 kts 336°
2026-05-06 19:31 48.06742 3.50487 35934 ft 436 kts 336°
2026-05-06 19:31 48.15149 3.45258 35934 ft 437 kts 336°
2026-05-06 19:32 48.20727 3.41774 35939 ft 437 kts 336°
2026-05-06 19:32 48.26342 3.38261 35943 ft 437 kts 336°
2026-05-06 19:33 48.31954 3.34743 35940 ft 437 kts 336°
2026-05-06 19:33 48.37560 3.31214 35943 ft 437 kts 336°
2026-05-06 19:34 48.43167 3.27679 35948 ft 436 kts 336°
2026-05-06 19:34 48.48774 3.24142 35947 ft 436 kts 336°
2026-05-06 19:35 48.54331 3.20627 35943 ft 436 kts 336°
2026-05-06 19:35 48.59929 3.17075 35942 ft 436 kts 336°
2026-05-06 19:36 48.65530 3.13516 35945 ft 436 kts 336°
2026-05-06 19:36 48.71115 3.09953 35949 ft 436 kts 336°
2026-05-06 19:37 48.76707 3.06377 35950 ft 436 kts 336°
2026-05-06 19:37 48.81385 3.03377 35963 ft 435 kts 336°
2026-05-06 19:38 48.87660 2.98617 35953 ft 434 kts 329°
2026-05-06 19:38 48.92889 2.94036 35954 ft 434 kts 329°
2026-05-06 19:39 48.98122 2.89462 35954 ft 433 kts 329°
2026-05-06 19:39 49.03343 2.84876 35953 ft 433 kts 329°
2026-05-06 19:40 49.08529 2.80313 35966 ft 433 kts 329°
2026-05-06 19:40 49.13748 2.75715 35965 ft 433 kts 329°
2026-05-06 19:41 49.18968 2.71107 35963 ft 433 kts 329°
2026-05-06 19:41 49.24185 2.66475 35951 ft 433 kts 329°
2026-05-06 19:42 49.29392 2.61854 35975 ft 432 kts 329°
2026-05-06 19:42 49.33714 2.58018 35976 ft 432 kts 329°
2026-05-06 19:43 49.38903 2.53388 35969 ft 431 kts 329°
2026-05-06 19:43 49.44072 2.48758 35971 ft 431 kts 329°
2026-05-06 19:44 49.49248 2.44107 35972 ft 430 kts 329°
2026-05-06 19:44 49.54047 2.38691 35977 ft 428 kts 318°
2026-05-06 19:45 49.58559 2.32681 35976 ft 428 kts 319°
2026-05-06 19:45 49.63076 2.26683 35972 ft 429 kts 319°
2026-05-06 19:46 49.67592 2.20685 35983 ft 428 kts 319°
2026-05-06 19:46 49.72088 2.14677 36000 ft 426 kts 318°
2026-05-06 19:47 49.76568 2.08669 35988 ft 426 kts 318°
2026-05-06 19:47 49.81046 2.02660 35987 ft 426 kts 318°
2026-05-06 19:48 49.85526 1.96637 35973 ft 427 kts 318°
2026-05-06 19:48 49.89993 1.90610 35960 ft 429 kts 318°
2026-05-06 19:49 49.94498 1.84513 35961 ft 430 kts 318°
2026-05-06 19:49 49.99007 1.78384 35972 ft 431 kts 318°
2026-05-06 19:50 50.03519 1.72237 35974 ft 431 kts 318°
2026-05-06 19:50 50.08004 1.66147 35980 ft 432 kts 318°
2026-05-06 19:51 50.12541 1.60002 35981 ft 432 kts 319°
2026-05-06 19:51 50.17074 1.53872 35643 ft 429 kts 318°
2026-05-06 19:52 50.19310 1.50827 35279 ft 424 kts 318°
2026-05-06 19:52 50.21516 1.47817 34908 ft 419 kts 319°
2026-05-06 19:52 50.23674 1.44864 34556 ft 416 kts 319°
2026-05-06 19:52 50.25839 1.41899 34200 ft 412 kts 319°
2026-05-06 19:53 50.27981 1.38964 33820 ft 408 kts 319°
2026-05-06 19:53 50.30108 1.36049 33397 ft 405 kts 318°
2026-05-06 19:53 50.32203 1.33180 32989 ft 402 kts 318°
2026-05-06 19:53 50.34304 1.30302 32581 ft 399 kts 318°
2026-05-06 19:54 50.36387 1.27442 32187 ft 397 kts 318°
2026-05-06 19:54 50.38451 1.24602 31787 ft 394 kts 318°
2026-05-06 19:54 50.40503 1.21768 31402 ft 392 kts 317°
2026-05-06 19:54 50.42205 1.19413 31089 ft 390 kts 317°
2026-05-06 19:55 50.43910 1.17056 30764 ft 388 kts 317°
2026-05-06 19:55 50.45928 1.14264 30395 ft 386 kts 317°
2026-05-06 19:55 50.47932 1.11492 30019 ft 384 kts 317°
2026-05-06 19:55 50.49932 1.08725 29587 ft 381 kts 317°
2026-05-06 19:56 50.51876 1.05922 29161 ft 378 kts 312°
2026-05-06 19:56 50.53669 1.02910 28732 ft 376 kts 312°
2026-05-06 19:56 50.55444 0.99917 28319 ft 373 kts 312°
2026-05-06 19:56 50.57190 0.96973 27868 ft 372 kts 312°
2026-05-06 19:57 50.58948 0.94007 27349 ft 369 kts 312°
2026-05-06 19:57 50.60694 0.91058 26858 ft 367 kts 312°
2026-05-06 19:57 50.62429 0.88128 26366 ft 365 kts 312°
2026-05-06 19:57 50.64155 0.85207 25882 ft 363 kts 312°
2026-05-06 19:58 50.65867 0.82308 25414 ft 361 kts 311°
2026-05-06 19:58 50.67573 0.79409 24947 ft 359 kts 311°
2026-05-06 19:58 50.69203 0.76447 24488 ft 357 kts 308°
2026-05-06 19:58 50.70764 0.73418 24036 ft 355 kts 307°
2026-05-06 19:59 50.72285 0.70369 23586 ft 353 kts 307°
2026-05-06 19:59 50.73793 0.67325 23058 ft 351 kts 307°
2026-05-06 19:59 50.75301 0.64301 22546 ft 350 kts 307°
2026-05-06 19:59 50.76819 0.61285 22022 ft 349 kts 308°
2026-05-06 20:00 50.78332 0.58288 21522 ft 349 kts 308°
2026-05-06 20:00 50.79845 0.55299 21022 ft 348 kts 308°
2026-05-06 20:00 50.81356 0.52318 20531 ft 347 kts 308°
2026-05-06 20:00 50.82868 0.49338 20016 ft 348 kts 308°
2026-05-06 20:01 50.84386 0.46349 19494 ft 348 kts 308°
2026-05-06 20:01 50.85901 0.43359 18979 ft 349 kts 308°
2026-05-06 20:01 50.87422 0.40353 18473 ft 350 kts 308°
2026-05-06 20:01 50.88944 0.37337 17932 ft 350 kts 308°
2026-05-06 20:02 50.90465 0.34322 17362 ft 351 kts 308°
2026-05-06 20:02 50.91959 0.31350 16910 ft 348 kts 308°
2026-05-06 20:02 50.93458 0.28366 16463 ft 346 kts 308°
2026-05-06 20:02 50.94953 0.25393 16015 ft 344 kts 308°
2026-05-06 20:03 50.96436 0.22412 15506 ft 344 kts 308°
2026-05-06 20:03 50.97908 0.19423 15004 ft 343 kts 308°
2026-05-06 20:03 50.99432 0.16520 14509 ft 343 kts 314°
2026-05-06 20:03 51.01140 0.13892 14024 ft 342 kts 316°
2026-05-06 20:04 51.02868 0.11297 13519 ft 341 kts 316°
2026-05-06 20:04 51.04587 0.08718 12977 ft 340 kts 316°
2026-05-06 20:04 51.06287 0.06166 12449 ft 333 kts 316°
2026-05-06 20:04 51.07962 0.03650 11958 ft 329 kts 316°
2026-05-06 20:05 51.09539 0.01042 11546 ft 325 kts 305°
2026-05-06 20:05 51.10454 -0.02206 11170 ft 322 kts 282°
2026-05-06 20:05 51.10480 -0.05698 10669 ft 313 kts 258°
2026-05-06 20:05 51.09624 -0.08796 10178 ft 304 kts 234°
2026-05-06 20:06 51.08097 -0.11071 9678 ft 302 kts 218°
2026-05-06 20:06 51.06386 -0.13021 9142 ft 304 kts 216°
2026-05-06 20:06 51.04656 -0.14944 8551 ft 300 kts 216°
2026-05-06 20:06 51.02993 -0.16858 7958 ft 290 kts 224°
2026-05-06 20:07 51.01853 -0.19387 7373 ft 278 kts 251°
2026-05-06 20:07 51.01378 -0.22303 6936 ft 272 kts 260°
2026-05-06 20:07 51.01037 -0.25224 6502 ft 273 kts 261°
2026-05-06 20:07 51.00699 -0.28188 6032 ft 273 kts 261°
2026-05-06 20:08 51.00374 -0.31152 5547 ft 272 kts 264°
2026-05-06 20:08 51.00486 -0.34084 5027 ft 261 kts 287°
2026-05-06 20:08 51.01029 -0.36766 4550 ft 251 kts 291°
2026-05-06 20:08 51.01602 -0.39338 4049 ft 243 kts 291°
2026-05-06 20:09 51.02169 -0.41848 3587 ft 241 kts 291°
2026-05-06 20:09 51.02779 -0.44283 3305 ft 234 kts 302°
2026-05-06 20:09 51.03900 -0.46017 3044 ft 219 kts 334°
2026-05-06 20:09 51.05234 -0.46935 2990 ft 199 kts 340°
2026-05-06 20:10 51.06483 -0.47675 2993 ft 187 kts 341°
2026-05-06 20:10 51.07709 -0.48233 2985 ft 182 kts
2026-05-06 20:10 51.08900 -0.47703 3001 ft 181 kts 36°
2026-05-06 20:10 51.09791 -0.46294 3006 ft 181 kts 49°
2026-05-06 20:11 51.10577 -0.44712 3005 ft 182 kts 51°
2026-05-06 20:11 51.11334 -0.43099 2988 ft 183 kts 56°
2026-05-06 20:11 51.11726 -0.41178 2834 ft 183 kts 76°
2026-05-06 20:11 51.11997 -0.39230 2623 ft 178 kts 75°
2026-05-06 20:12 51.12267 -0.37327 2392 ft 175 kts 75°
2026-05-06 20:12 51.12527 -0.35471 2149 ft 173 kts 75°
2026-05-06 20:12 51.12785 -0.33630 1912 ft 167 kts 75°
2026-05-06 20:12 51.13030 -0.31871 1706 ft 158 kts 75°
2026-05-06 20:13 51.13261 -0.30211 1493 ft 147 kts 74°
2026-05-06 20:13 51.13477 -0.28665 1295 ft 140 kts 74°
2026-05-06 20:13 51.13685 -0.27168 1079 ft 138 kts 75°
2026-05-06 20:13 51.13891 -0.25691 886 ft 136 kts 75°
2026-05-06 20:14 51.14098 -0.24210 676 ft 136 kts 76°
2026-05-06 20:14 51.14305 -0.22742 456 ft 135 kts 78°
2026-05-06 20:14 51.14505 -0.21282 291 ft 135 kts 78°
2026-05-06 20:14 51.14696 -0.19866 206 ft 117 kts 78°
2026-05-06 20:15 51.14836 -0.18869 204 ft 67 kts 77°
2026-05-06 20:15 51.14918 -0.18280 209 ft 48 kts 79°
2026-05-06 20:15 51.15016 -0.17855 210 ft 28 kts 39°
2026-05-06 20:15 51.15114 -0.17759 207 ft 15 kts 11°
2026-05-06 20:16 51.15180 -0.17769 209 ft 0 kts 351°
2026-05-06 20:16 51.15181 -0.17769 210 ft 1 kts 351°
2026-05-06 20:16 51.15221 -0.17775 208 ft 8 kts
2026-05-06 20:16 51.15270 -0.17664 204 ft 19 kts 76°
2026-05-06 20:17 51.15299 -0.17440 207 ft 20 kts 83°
2026-05-06 20:17 51.15371 -0.17374 204 ft 13 kts 348°
2026-05-06 20:17 51.15472 -0.17412 208 ft 16 kts 347°
2026-05-06 20:17 51.15541 -0.17483 209 ft 10 kts 279°
2026-05-06 20:18 51.15530 -0.17585 208 ft 7 kts 272°
2026-05-06 20:18 51.15558 -0.17609 208 ft 4 kts 348°
2026-05-06 20:18 51.15585 -0.17618 213 ft 4 kts 347°
2026-05-06 20:18 51.15591 -0.17621 204 ft 0 kts 348°